Location: Dallas
(32.7833°N, 96.8000°W)
Time: 21:20:26
(UTC-06:00)

Envisat - Pass Details

Date: 14 December 2021
Orbit: 764 x 766 km, 98.2° (Epoch: 23 January)

Event Time Altitude Azimuth Distance (km) Brightness Sun altitude
Rises 05:03:42 0° 17° (NNE) 3,234 6.3 -28.2°
Reaches altitude 10° 05:06:04 10° 21° (NNE) 2,304 5.6 -27.7°
Maximum altitude 05:11:04 59° 101° (E) 883 3.5 -26.7°
Drops below altitude 10° 05:16:02 10° 180° (S) 2,290 5.6 -25.6°
Sets 05:18:21 0° 184° (S) 3,212 6.3 -25.2°
